[ show orbit diagram ]
Orbital Elements at Epoch 2459200.5 (2020-Dec-17.0) TDB
Reference: JPL 37 (heliocentric ecliptic J2000)
Element | Value | Uncertainty (1-sigma) | Units |
e | .08432220292682405 | 4.944e-08 | |
a | 2.759272613212755 | 1.2651e-08 | au |
q | 2.526604667991001 | 1.3739e-07 | au |
i | 16.94617898863988 | 5.9639e-06 | deg |
node | 4.642066988318227 | 1.2576e-05 | deg |
peri | 143.1020273029733 | 3.1403e-05 | deg |
M | 251.4764775965476 | 2.9619e-05 | deg |
tp | 2459705.174920393946 (2022-May-05.67492039) | 0.00013866 | TDB |
period | 1674.134485484049 4.58 | 1.1514e-05 3.152e-08 | d yr |
n | .2150364878816243 | 1.4789e-09 | deg/d |
Q | 2.991940558434509 | 1.3718e-08 | au |
|
| | Orbit Determination Parameters
Additional Information
|
[ show covariance matrix ]
Physical Parameter Table
Parameter |
Symbol |
Value |
Units |
Sigma |
Reference |
Notes |
absolute magnitude |
H |
11.82 |
|
n/a |
E2021B10 |
|
diameter |
diameter |
24.675 |
km |
0.202 |
urn:nasa:pds:neowise_diameters_albedos::2.0[mainbelt] (http://adsabs.harvard.edu/abs/2014ApJ...791..121M) |
|
rotation period |
rot_per |
6.303 |
h |
n/a |
LCDB (Rev. 2020-October); Warner et al., 2009 |
Published Reference List: [Ditteon, R.; Kirkpatrick, E.; Doering, K. (2010) Minor Planet Bull. 37, 1-4.] |
geometric albedo |
albedo |
0.044 |
|
0.009 |
urn:nasa:pds:neowise_diameters_albedos::2.0[mainbelt] (http://adsabs.harvard.edu/abs/2012ApJ...759L...8M) |
|
|
5839 GOI | Discovered 1974 Sept. 21 by N. S. Chernykh at the Crimean Astrophysical Observatory. |
Named for Gosudarstvennyj Opticheskij Institut, the State Optical Institute, and its first director, academician Dmitrij Sergeevich Rozhdestvenskij (1876-1940), an outstanding physicist-optician. The institute has undertaken important investigations in the field of physical and applied optics. The name is given on the occasion of the 80th anniversary of its founding (1918 Dec. 15). |
NOTE: some special characters may not display properly (any characters within {} are an attempt to place the proper accent above a character) |
Reference: 19980808/MPCPages.arc | Last Updated: 2009-11-17 |
|
Alternate Designations
1974 SJ3 = 1956 TP = 1979 SY10 = 1979 VA1 = 1986 GP = 1988 RE14 = 1990 BG2 |
|
|
|